Location: Newark
(41.6500°N, 71.4833°W)
Time: 17:14:36
(UTC+00:00)

Tiros 1 - All Passes

Search period start: 29 January 2020 00:00
Search period end: 08 February 2020 00:00
Orbit: 630 x 664 km, 48.4° (Epoch: 29 January)

Date Brightness Start Highest point End Pass type
(mag) Time Alt. Az. Time Alt. Az. Time Alt. Az.
29 Jan - 14:11:54 10° SSE 14:14:35 15° SE 14:17:19 10° E daylight
29 Jan - 15:51:32 10° SW 15:56:10 74° SSE 16:00:52 10° ENE daylight
29 Jan - 17:34:10 10° W 17:38:38 42° NNW 17:43:09 10° ENE daylight
29 Jan - 19:17:08 10° WNW 19:21:33 38° N 19:26:01 10° ENE daylight
29 Jan - 20:59:26 10° WNW 21:04:12 82° NNE 21:09:00 10° ESE daylight
29 Jan - 22:42:12 10° W 22:46:03 24° SW 22:49:54 10° S visible
30 Jan - 14:36:06 10° SSW 14:40:15 33° SE 14:44:27 10° ENE daylight
30 Jan - 16:17:38 10° WSW 16:22:16 64° NNW 16:26:58 10° ENE daylight
30 Jan - 18:00:41 10° WNW 18:05:02 36° N 18:09:25 10° ENE daylight
30 Jan - 19:43:19 10° WNW 19:47:55 49° NNE 19:52:33 10° E daylight
30 Jan - 21:25:35 10° WNW 21:30:13 54° SW 21:34:53 10° SE daylight
30 Jan - 23:10:45 10° WSW 23:11:38 10° SW 23:12:30 10° SW visible
31 Jan - 13:22:13 10° SSE 13:24:35 14° SE 13:26:59 10° E daylight
31 Jan - 15:01:32 10° SW 15:06:07 69° SSE 15:10:47 10° ENE daylight
31 Jan - 16:44:05 10° W 16:48:33 43° NNW 16:53:04 10° ENE daylight
31 Jan - 18:27:04 10° WNW 18:31:27 37° N 18:35:53 10° ENE daylight
31 Jan - 20:09:24 10° WNW 20:14:08 77° NNE 20:18:55 10° ESE daylight
31 Jan - 21:52:04 10° W 21:56:01 26° SW 21:59:59 10° SSE daylight
01 Feb - 13:46:11 10° SSW 13:50:14 31° SE 13:54:20 10° ENE daylight
01 Feb - 15:27:35 10° WSW 15:32:12 67° NNW 15:36:54 10° ENE daylight
01 Feb - 17:10:36 10° WNW 17:14:56 36° N 17:19:19 10° ENE daylight
01 Feb - 18:53:16 10° WNW 18:57:50 47° NNE 19:02:26 10° E daylight
01 Feb - 20:35:31 10° WNW 20:40:10 58° SW 20:44:51 10° SE daylight
01 Feb - 22:20:02 10° WSW 22:21:38 12° SW 22:23:14 10° SSW daylight
02 Feb - 12:32:36 10° SSE 12:34:37 13° SE 12:36:36 10° ESE daylight
02 Feb - 14:11:31 10° SW 14:16:05 64° SE 14:20:43 10° ENE daylight
02 Feb - 15:54:00 10° W 15:58:28 45° NNW 16:02:59 10° ENE daylight
02 Feb - 17:37:01 10° WNW 17:41:22 37° N 17:45:47 10° ENE daylight
02 Feb - 19:19:21 10° WNW 19:24:04 73° NNE 19:28:50 10° ESE daylight
02 Feb - 21:01:57 10° W 21:06:00 28° SW 21:10:04 10° SSE daylight
03 Feb - 12:56:17 10° SSW 13:00:14 28° SE 13:04:12 10° E daylight
03 Feb - 14:37:31 10° WSW 14:42:09 71° NNW 14:46:50 10° ENE daylight
03 Feb - 16:20:31 10° WNW 16:24:51 36° N 16:29:13 10° ENE daylight
03 Feb - 18:03:13 10° WNW 18:07:45 45° NNE 18:12:18 10° E daylight
03 Feb - 19:45:27 10° WNW 19:50:07 62° SSW 19:54:49 10° SE daylight
03 Feb - 21:29:34 10° WSW 21:31:38 13° SW 21:33:41 10° SSW daylight
04 Feb - 11:43:08 10° SSE 11:44:37 11° SE 11:46:07 10° ESE daylight
04 Feb - 13:21:31 10° SW 13:26:03 59° SE 13:30:38 10° ENE daylight
04 Feb - 15:03:55 10° W 15:08:23 46° NNW 15:12:55 10° ENE daylight
04 Feb - 16:46:57 10° WNW 16:51:17 36° N 16:55:39 10° ENE daylight
04 Feb - 18:29:18 10° WNW 18:34:00 69° NNE 18:38:44 10° ESE daylight
04 Feb - 20:11:50 10° WNW 20:15:58 30° SW 20:20:08 10° SSE daylight
05 Feb - 12:06:23 10° SSW 12:10:13 26° SE 12:14:04 10° E daylight
05 Feb - 13:47:28 10° WSW 13:52:05 75° NNW 13:56:46 10° ENE daylight
05 Feb - 15:30:26 10° WNW 15:34:46 37° N 15:39:08 10° ENE daylight
05 Feb - 17:13:10 10° WNW 17:17:40 44° NNE 17:22:11 10° E daylight
05 Feb - 18:55:24 10° WNW 19:00:04 67° SSW 19:04:47 10° SE daylight
05 Feb - 20:39:13 10° W 20:41:38 14° SW 20:44:03 10° SSW daylight
06 Feb - 10:54:01 10° SE 10:54:38 10° SE 10:55:14 10° ESE visible
06 Feb - 12:31:31 10° SW 12:36:01 55° SE 12:40:33 10° ENE daylight
06 Feb - 14:13:50 10° W 14:18:19 48° NNW 14:22:51 10° ENE daylight
06 Feb - 15:56:53 10° WNW 16:01:11 36° N 16:05:32 10° ENE daylight
06 Feb - 17:39:16 10° WNW 17:43:56 66° NNE 17:48:38 10° ESE daylight
06 Feb - 19:21:45 10° WNW 19:25:57 33° SW 19:30:11 10° SSE daylight
07 Feb - 11:16:31 10° S 11:20:13 24° SE 11:23:56 10° E visible
07 Feb - 12:57:25 10° WSW 13:02:02 79° NNW 13:06:42 10° ENE daylight
07 Feb - 14:40:21 10° WNW 14:44:40 37° N 14:49:02 10° ENE daylight
07 Feb - 16:23:08 10° WNW 16:27:35 43° NNE 16:32:04 10° E daylight
07 Feb - 18:05:21 10° WNW 18:10:01 72° SSW 18:14:44 10° SE daylight
07 Feb - 19:48:55 10° W 19:51:37 15° SW 19:54:19 10° SSW daylight
